#timestamp,LO_Frequency,Hit,StdDev 
1509825615.5,286047007.5,Y
1509825635.3,286047003.6,P
1509825655.2,286047007.1,P
1509825675.9,286047004.6,N
1509825695.7,286047003.5,N
1509825715.6,286047007.4,Y
1509825735.4,286046998.4,P
1509825755.2,286047001.2,N
1509825775.1,286046999.5,N
1509825776.0,286046999.5,N
1509825795.8,286046997.7,N
1509825815.7,286046992.2,Y
1509825835.5,286046992.0,P
1509825855.3,286046995.3,N
1509825875.2,286046995.6,N
1509825895.9,286046995.5,N
1509825915.7,286046998.5,N
1509825935.6,286047001.1,N
1509825955.4,286046998.2,N
1509825975.2,286047004.4,N
1509825995.1,286047003.2,N
1509825996.0,286047003.2,N
1509826015.8,286047001.2,N
1509826035.6,286046993.7,N
1509826055.5,286046996.6,N
1509826075.3,286046997.9,N
1509826095.1,286046997.5,N
1509826115.9,286047000.8,N
1509826135.7,286047001.8,N
1509826155.5,286047001.2,N
1509826175.4,286046995.9,N
1509826195.2,286046995.9,N
1509826215.0,286046993.3,N
1509826215.9,286046993.3,N
1509826235.8,286046995.5,N
1509826255.6,286046995.8,N
1509826275.4,286046992.3,N
1509826295.3,286046992.4,N
1509826315.1,286046993.7,N
1509826316.0,286046993.7,N
1509826335.8,286046993.5,N
1509826355.7,286046990.4,N
1509826375.5,286046990.6,N
1509826395.3,286046989.4,N
1509826415.2,286046987.3,Y
1509826435.0,286046994.6,P
1509826435.9,286046994.6,P
1509826455.7,286046994.4,P
1509826475.6,286046991.7,Y
1509826495.4,286047000.7,P
1509826515.3,286047002.0,N
1509826535.1,286046998.1,N
1509826536.0,286046998.1,N
1509826555.8,286047000.6,N
1509826575.7,286047002.5,N
1509826595.5,286047002.1,N
1509826615.3,286047005.0,N
1509826635.2,286047003.3,N
1509826655.9,286047001.3,N
1509826675.7,286047003.8,N
1509826695.6,286047002.5,N
1509826715.4,286047004.2,N
1509826735.2,286047004.2,N
1509826755.1,286047004.3,N
1509826756.0,286047004.3,N
1509826775.8,286047001.7,N
1509826795.6,286047002.9,N
1509826815.5,286047004.2,N
1509826835.3,286047004.7,N
1509826855.1,286047005.4,N
1509826875.9,286047006.6,N
1509826895.7,286047008.4,Y
1509826915.5,286047007.4,P
1509826935.4,286047006.9,N
1509826955.2,286047008.4,P
1509826975.0,286047005.1,N
1509826975.9,286047005.1,N
1509826995.8,286047003.2,N
1509827015.6,286047006.0,N
1509827035.4,286047002.2,N
1509827055.3,286047000.5,N
1509827075.1,286046998.2,N
1509827095.8,286047000.3,N
1509827115.7,286047003.9,N
1509827135.5,286047009.0,Y
1509827155.3,286047010.4,P
1509827175.2,286047010.7,P
1509827195.0,286047011.3,P
1509827195.9,286047011.3,Y
1509827215.8,286047007.2,P
1509827235.6,286047007.5,P
1509827255.4,286047001.7,N
1509827275.3,286047000.8,N
1509827295.1,286046997.3,N
1509827296.0,286046997.3,N
1509827315.8,286046993.4,N
1509827335.7,286046990.4,N
1509827355.5,286046985.8,N
1509827375.3,286046991.1,N
1509827395.2,286046991.1,N
1509827415.9,286046988.3,N
1509827435.7,286046979.0,N
1509827455.6,286046976.7,N
1509827475.4,286046976.2,N
1509827495.2,286046982.9,N
1509827515.1,286046977.4,N
1509827516.0,286046977.4,N
1509827535.8,286046980.3,N
1509827555.6,286046974.8,N
1509827575.5,286046971.4,N
1509827595.3,286046970.6,N
1509827615.1,286046965.4,N
1509827635.9,286046964.1,N
1509827655.7,286046964.8,N
1509827675.5,286046967.8,N
1509827695.4,286046970.6,N
1509827715.2,286046968.1,N
1509827735.0,286046968.4,N
1509827735.9,286046968.4,N
1509827755.8,286046970.5,N
1509827775.6,286046967.7,N
1509827795.4,286046964.9,Y
1509827815.3,286046987.1,P
1509827835.1,286046990.4,N
1509827855.8,286046991.8,N
1509827875.7,286046994.3,N
1509827895.5,286046996.4,N
1509827915.3,286046995.6,N
1509827935.2,286046997.3,N
1509827955.9,286046999.7,N
1509827975.7,286047001.5,N
1509827995.6,286047005.9,N
1509828015.4,286047003.5,N
1509828035.2,286047006.3,N
1509828055.1,286047004.9,N
1509828056.0,286047004.9,N
1509828075.8,286047004.9,N
1509828095.6,286047006.0,N
1509828115.5,286047005.2,N
1509828135.3,286047006.4,N
1509828155.1,286047006.9,N
1509828175.9,286047005.1,N
1509828195.7,286047005.3,N
1509828215.5,286047005.5,N
1509828235.4,286047005.6,N
1509828255.2,286047002.0,N
1509828275.0,286047002.4,N
1509828275.9,286047002.4,N
1509828295.8,286047002.6,N
1509828315.6,286047004.0,N
1509828335.4,286047005.5,N
1509828355.3,286047009.1,N
1509828375.1,286047008.9,N
1509828395.8,286047007.0,N
1509828415.7,286047005.0,N
1509828435.5,286047005.2,N
1509828455.3,286047002.2,N
1509828475.2,286047001.3,N
1509828495.0,286047002.2,N
1509828495.9,286047002.2,N
1509828515.7,286047004.7,N
1509828535.6,286047005.5,N
1509828555.4,286047001.6,N
1509828575.2,286047003.5,N
1509828595.1,286047005.9,N
1509828596.0,286047005.9,N
1509828615.8,286047006.8,Y
1509828635.7,286047004.2,P
1509828655.5,286047002.0,P
1509828675.3,286047002.1,N
1509828695.2,286047001.8,N
1509828715.9,286047002.6,N
1509828735.7,286047001.9,N
1509828755.6,286047001.5,N
1509828775.4,286047002.1,N
1509828795.2,286047001.4,N
1509828815.1,286046999.7,N
1509828816.0,286046999.7,N
1509828835.8,286047001.4,N
1509828855.6,286047000.7,N
1509828875.5,286047002.4,N
1509828895.3,286047002.6,N
1509828915.1,286047002.4,N
1509828935.9,286047002.1,N
1509828955.7,286047000.8,N
1509828975.5,286047002.0,N
1509828995.4,286047000.6,N
1509829015.2,286046998.7,N
1509829035.0,286047001.9,N
1509829035.9,286047001.9,N
1509829055.8,286047003.8,N
1509829075.6,286047006.0,Y
1509829095.4,286047002.3,P
1509829115.3,286046999.7,N
1509829135.1,286047002.6,N
1509829155.8,286047006.0,Y
1509829175.7,286047001.2,P
1509829195.5,286047000.4,N
